Regional Weather Roundup
Issued by NWS Sioux Falls, SD

Home | Current Version | Previous Version | Text Only | Print | Product List | Glossary Off
Versions: 1 2 3 4 5 6 7 8 9 10 11 12 13 14 15 16 17 18 19 20 21 22 23 24 25 26 27 28 29 30 31 32 33 34 35 36 37 38 39 40 41 42 43 44 45 46 47 48 49 50

000
ASUS43 KFSD 171802
RWRFSD

WEATHER ROUNDUP FOR SE SOUTH DAKOTA/SW MINNESOTA/NW IOWA
NATIONAL WEATHER SERVICE SIOUX FALLS SD
1200 PM CST FRI NOV 17 2017

NOTE: "FAIR" INDICATES FEW OR NO CLOUDS BELOW 12,000 FEET WITH NO
SIGNIFICANT WEATHER AND OR OBSTRUCTIONS TO VISIBILITY.


SDZ038>040-050-052>070-171900-
SOUTHEAST SOUTH DAKOTA

CITY           SKY/WX    TMP DP  RH WIND       PRES   REMARKS
BROOKINGS      LGT RAIN  42  34  73 N13       29.59F
CHAMBERLAIN    CLOUDY    46  35  67 NW8       29.67R
6HR MIN TEMP:  41; 6HR MAX TEMP:  46;

HURON          CLOUDY    43  33  68 N16G22    29.64F
6HR MIN TEMP:  29; 6HR MAX TEMP:  43; 6HR PCP: TRACE;

MADISON        FAIR      41  39  93 N16       29.60S
MITCHELL       LGT RAIN  45  36  70 N13       29.62S
6HR MIN TEMP:  36; 6HR MAX TEMP:  45; 6HR PCP: TRACE;

SIOUX FALLS    CLOUDY    51  41  68 N10       29.57F
6HR MIN TEMP:  42; 6HR MAX TEMP:  51;

WINNER         CLOUDY    43  37  79 NW8       29.69R
YANKTON        PTSUNNY   44  35  70 NW16      29.60R
$$

MNZ071-072-080-081-089-090-097-098-171900-
SOUTHWEST MINNESOTA

CITY           SKY/WX    TMP DP  RH WIND       PRES   REMARKS
FAIRMONT       CLOUDY    41  37  86 S13       29.61F
JACKSON        CLOUDY    45  37  76 CALM      29.58F
MARSHALL       CLOUDY    44  35  70 N14       29.60F
6HR MIN TEMP:  36; 6HR MAX TEMP:  44;

MONTEVIDEO     CLOUDY    45  36  70 N3        29.61F
PIPESTONE      CLOUDY    46  37  71 N13       29.57S
REDWOOD FALLS  MOSUNNY   45  35  68 S3        29.61S
WINDOM           N/A     46  30  53 S6        29.59F
WORTHINGTON    CLOUDY    50  43  77 W7        29.57F
$$

IAZ001>003-012>014-020>022-031-032-NEZ013-014-SDZ071-171900-
NORTHWEST IOWA

CITY           SKY/WX    TMP DP  RH WIND       PRES   REMARKS
CHEROKEE       CLOUDY    55  48  78 S10       29.55F
DENISON        CLOUDY    52  50  93 S18G25    29.56F
ESTHERVILLE    CLOUDY    43  39  86 S8        29.59F
LE MARS        PTSUNNY   57  46  67 SW9G16    29.55S
ORANGE CITY    CLOUDY    55  48  76 SW8       29.55F
SHELDON        CLOUDY    54  45  71 W8        29.54F
SIOUX CITY     CLOUDY    58  48  69 SW10      29.55F
6HR MIN TEMP:  45; 6HR MAX TEMP:  58;

SPENCER        CLOUDY    51  44  77 S9        29.57F
6HR MIN TEMP:  40; 6HR MAX TEMP:  51;

STORM LAKE     CLOUDY    52  46  82 S15       29.56F
$$

ABBREVIATIONS USED IN REMARKS
   TC - TEMPERATURE IN CELSIUS
  WCI - WIND CHILL INDEX
   HX - HEAT INDEX
  VSB - VISIBILITY





USA.gov is the U.S. government's official web portal to all federal, state and local government web resources and services.